Weather History for Hibbing, MN

Change the Weather History Date:

Thursday, February 21, 2013

  Actual Average Record
Temperature  
Mean Temperature 4 °F -  
Max Temperature 24 °F 28 °F 46 °F (2000)
Min Temperature -16 °F 7 °F -29 °F (2008)
Degree Days  
Heating Degree Days 61    
Moisture  
Dew Point -2 °F    
Average Humidity 67    
Maximum Humidity 85    
Minimum Humidity 46    
Precipitation  
Precipitation 0.00 in - - ()
Sea Level Pressure  
Sea Level Pressure 30.45 in    
Wind  
Wind Speed 3 mph (East)    
Max Wind Speed 13 mph    
Max Gust Speed -    
Visibility 10 miles    
Events      
Averages and records for this station are not official NWS values.
T = Trace of Precipitation, MM = Missing Value Source: NWS Daily Summary

Daily Weather History Graph

Daily Weather History Graph

Search for Another Location

Airport:

Trip Planner

Search our weather history database for the weather conditions in past years. The results will help you decide how hot, cold, wet, or windy it might be!

Date:

Astronomy

Feb. 21, 2013 Rise Set
Actual Time 7:05 AM CST 5:44 PM CST
Civil Twilight 6:34 AM CST 6:15 PM CST
Nautical Twilight 5:59 AM CST 6:51 PM CST
Astronomical Twilight 5:23 AM CST 7:27 PM CST
Moon 1:49 PM CST (2/21) 4:21 AM CST (2/21)
Length of Visible Light 11h 41m
Length of Day
10h 39m
Waxing Gibbous, 84% of the Moon is Illuminated
Feb 21
Waxing Gibbous
Feb 25
Full
Mar 4
Last Quarter
Mar 11
New
Mar 19
First Quarter

Hourly Weather History & Observations

Time (CST) Temp. Windchill Dew Point Humidity Pressure Visibility Wind Dir Wind Speed Gust Speed Precip Events Conditions
12:53 AM -9.0 °F - -17.0 °F 68% 30.53 in 10.0 mi Calm Calm - N/A   Clear
1:53 AM -9.9 °F - -18.0 °F 68% 30.54 in 10.0 mi Calm Calm - N/A   Clear
2:53 AM -13.0 °F - -20.0 °F 71% 30.53 in 10.0 mi Calm Calm - N/A   Clear
3:53 AM -14.1 °F -23.9 °F -20.0 °F 75% 30.53 in 10.0 mi NW 3.5 mph - N/A   Clear
4:53 AM -16.1 °F - -22.0 °F 74% 30.56 in 10.0 mi Calm Calm - N/A   Clear
5:53 AM -16.1 °F - -22.0 °F 74% 30.57 in 10.0 mi Calm Calm - N/A   Clear
6:53 AM -16.1 °F - -23.1 °F 71% 30.56 in 10.0 mi Calm Calm - N/A   Clear
7:53 AM -14.1 °F -23.9 °F -20.9 °F 71% 30.50 in 10.0 mi North 3.5 mph - N/A   Partly Cloudy
8:53 AM 1.9 °F - -5.1 °F 72% 30.53 in 10.0 mi Calm Calm - N/A   Clear
9:53 AM 9.0 °F 0.6 °F -0.0 °F 67% 30.56 in 10.0 mi SE 4.6 mph - N/A   Clear
10:53 AM 14.0 °F 8.2 °F 3.9 °F 64% 30.52 in 10.0 mi SSE 3.5 mph - N/A   Clear
11:53 AM 17.1 °F 8.7 °F 3.9 °F 56% 30.51 in 10.0 mi East 5.8 mph - N/A   Clear
12:53 PM 19.9 °F 11.1 °F 6.1 °F 55% 30.48 in 10.0 mi Variable 6.9 mph - N/A   Clear
1:53 PM 23.0 °F 13.9 °F 6.1 °F 48% 30.44 in 10.0 mi East 8.1 mph - N/A   Clear
2:53 PM 24.1 °F 13.1 °F 6.1 °F 46% 30.42 in 10.0 mi ENE 11.5 mph - N/A   Clear
3:53 PM 24.1 °F 16.0 °F 7.0 °F 48% 30.41 in 10.0 mi East 6.9 mph - N/A   Clear
4:53 PM 21.9 °F 9.8 °F 6.1 °F 51% 30.41 in 10.0 mi ESE 12.7 mph - N/A   Clear
5:53 PM 19.0 °F 6.1 °F 7.0 °F 59% 30.42 in 10.0 mi SE 12.7 mph - N/A   Clear
6:53 PM 15.1 °F 4.2 °F 8.1 °F 74% 30.41 in 10.0 mi ESE 8.1 mph - N/A   Clear
7:43 PM 12.2 °F 2.9 °F 8.6 °F 85% 30.28 in 10.0 mi ESE 5.8 mph - N/A   Mostly Cloudy
7:53 PM 15.1 °F 7.7 °F 9.0 °F 77% 30.40 in 10.0 mi East 4.6 mph - N/A   Overcast
8:26 PM 15.8 °F 10.2 °F 8.6 °F 73% 30.26 in 10.0 mi ENE 3.5 mph - N/A   Overcast
8:53 PM 15.1 °F 7.7 °F 9.0 °F 77% 30.35 in 10.0 mi NE 4.6 mph - N/A   Overcast
9:53 PM 16.0 °F 8.8 °F 10.0 °F 77% 30.31 in 10.0 mi NE 4.6 mph - N/A   Overcast
10:53 PM 17.1 °F 8.7 °F 12.0 °F 81% 30.28 in 10.0 mi ENE 5.8 mph - N/A   Overcast